When you browse on this site, cookies collect data to enhance your experience and personalize the content and advertising you see.
Visit our Privacy Policy to learn more. By continuing to use the site, you agree to this use of cookies and data.

Tiempo cada hora Sydney

Hoy, 12 Julio, Domingo

Tiempo Temperatura Precipitaciones Viento Presión Humedad
00:00 +11°C° 0 mm 3 mps 760 mmHg 87%
01:00 +11°C° 0 mm 3 mps 760 mmHg 87%
02:00 +10°C° 0 mm 2 mps 760 mmHg 87%
03:00 +10°C° 0 mm 2 mps 760 mmHg 87%
04:00 +10°C° 0 mm 3 mps 760 mmHg 86%
05:00 +9°C° 0 mm 2 mps 760 mmHg 85%
06:00 +9°C° 0 mm 2 mps 761 mmHg 85%
07:00 +9°C° 0 mm 2 mps 761 mmHg 84%
08:00 +12°C° 0 mm 2 mps 761 mmHg 76%
09:00 +14°C° 0 mm 2 mps 761 mmHg 68%
10:00 +16°C° 0 mm 2 mps 761 mmHg 59%
11:00 +17°C° 0 mm 2 mps 761 mmHg 53%
12:00 +19°C° 0 mm 1 mps 760 mmHg 48%
13:00 +21°C° 0 mm 1 mps 760 mmHg 42%
14:00 +19°C° 0 mm 2 mps 760 mmHg 49%
15:00 +18°C° 0 mm 2 mps 760 mmHg 55%
16:00 +17°C° 0 mm 3 mps 760 mmHg 61%
17:00 +16°C° 0.4 mm 2 mps 760 mmHg 68%
18:00 +15°C° 0.4 mm 2 mps 760 mmHg 75%
19:00 +14°C° 0.4 mm 1 mps 760 mmHg 82%
20:00 +14°C° 0.5 mm 1 mps 761 mmHg 83%
21:00 +14°C° 0.5 mm 2 mps 761 mmHg 84%
22:00 +13°C° 0.5 mm 2 mps 761 mmHg 85%
23:00 +13°C° 1.1 mm 2 mps 761 mmHg 88%

Mañana, 13 Julio, Lunes

Tiempo Temperatura Precipitaciones Viento Presión Humedad
00:00 +13°C° 1.1 mm 2 mps 761 mmHg 90%
01:00 +12°C° 1.1 mm 2 mps 761 mmHg 92%
02:00 +11°C° 2.4 mm 3 mps 761 mmHg 92%
03:00 +11°C° 2.4 mm 3 mps 761 mmHg 92%
04:00 +11°C° 2.4 mm 4 mps 761 mmHg 91%
05:00 +10°C° 0.2 mm 3 mps 761 mmHg 91%
06:00 +10°C° 0.2 mm 3 mps 762 mmHg 90%
07:00 +10°C° 0.2 mm 3 mps 762 mmHg 90%
08:00 +11°C° 0.1 mm 3 mps 762 mmHg 85%
09:00 +12°C° 0.1 mm 3 mps 763 mmHg 80%
10:00 +13°C° 0.1 mm 3 mps 763 mmHg 76%
11:00 +14°C° 0.2 mm 3 mps 762 mmHg 72%
12:00 +16°C° 0.2 mm 3 mps 761 mmHg 69%
13:00 +17°C° 0.2 mm 4 mps 761 mmHg 66%
14:00 +15°C° 0.6 mm 4 mps 761 mmHg 68%
15:00 +16°C° 0.6 mm 3 mps 761 mmHg 70%
16:00 +16°C° 0.6 mm 3 mps 761 mmHg 72%
17:00 +14°C° 1.4 mm 3 mps 761 mmHg 76%
18:00 +13°C° 1.4 mm 3 mps 761 mmHg 79%
19:00 +12°C° 1.4 mm 3 mps 761 mmHg 83%
20:00 +12°C° 1.1 mm 3 mps 762 mmHg 85%
21:00 +11°C° 1.1 mm 3 mps 762 mmHg 86%
22:00 +11°C° 1.1 mm 4 mps 762 mmHg 88%
23:00 +11°C° 0.3 mm 4 mps 761 mmHg 88%

Pasado mañana, 14 Julio, Martes

Tiempo Temperatura Precipitaciones Viento Presión Humedad
00:00 +10°C° 0.3 mm 5 mps 761 mmHg 87%
01:00 +10°C° 0.3 mm 5 mps 761 mmHg 87%
02:00 +10°C° 0.2 mm 6 mps 761 mmHg 87%
03:00 +11°C° 0.2 mm 6 mps 760 mmHg 87%
04:00 +11°C° 0.2 mm 7 mps 760 mmHg 87%
05:00 +11°C° 1.1 mm 7 mps 760 mmHg 88%
06:00 +11°C° 1.1 mm 8 mps 760 mmHg 89%
07:00 +11°C° 1.1 mm 8 mps 761 mmHg 90%
08:00 +12°C° 3.3 mm 9 mps 761 mmHg 88%
09:00 +12°C° 3.3 mm 9 mps 761 mmHg 86%
10:00 +13°C° 3.3 mm 10 mps 762 mmHg 83%
11:00 +13°C° 0.5 mm 10 mps 762 mmHg 81%
12:00 +13°C° 0.5 mm 11 mps 762 mmHg 79%
13:00 +13°C° 0.5 mm 11 mps 761 mmHg 77%
14:00 +13°C° 0.1 mm 11 mps 762 mmHg 75%
15:00 +13°C° 0.1 mm 11 mps 762 mmHg 74%
16:00 +13°C° 0.1 mm 11 mps 762 mmHg 72%
17:00 +13°C° 0.2 mm 10 mps 762 mmHg 74%
18:00 +12°C° 0.2 mm 10 mps 763 mmHg 77%
19:00 +11°C° 0.2 mm 10 mps 763 mmHg 79%
20:00 +11°C° 0.2 mm 10 mps 763 mmHg 80%
21:00 +11°C° 0.2 mm 10 mps 763 mmHg 80%
22:00 +12°C° 0.2 mm 10 mps 763 mmHg 80%
23:00 +11°C° 0.2 mm 10 mps 763 mmHg 81%

15 Julio, Miércoles

Tiempo Temperatura Precipitaciones Viento Presión Humedad
00:00 +11°C° 0.2 mm 10 mps 763 mmHg 81%
01:00 +11°C° 0.2 mm 10 mps 763 mmHg 81%
02:00 +11°C° 0.2 mm 10 mps 763 mmHg 81%
03:00 +9°C° 0.2 mm 10 mps 763 mmHg 80%
04:00 +9°C° 0.2 mm 10 mps 762 mmHg 79%
05:00 +9°C° 0.2 mm 10 mps 763 mmHg 78%
06:00 +9°C° 0.2 mm 10 mps 763 mmHg 76%
07:00 +8°C° 0.2 mm 10 mps 763 mmHg 75%
08:00 +10°C° 0.1 mm 9 mps 763 mmHg 74%
09:00 +10°C° 0.1 mm 9 mps 763 mmHg 72%
10:00 +10°C° 0.1 mm 8 mps 763 mmHg 71%
11:00 +11°C° 0.2 mm 9 mps 762 mmHg 67%
12:00 +12°C° 0.2 mm 9 mps 761 mmHg 63%
13:00 +13°C° 0.2 mm 10 mps 761 mmHg 59%
14:00 +13°C° 0.1 mm 10 mps 761 mmHg 58%
15:00 +13°C° 0.1 mm 10 mps 761 mmHg 57%
16:00 +13°C° 0.1 mm 10 mps 761 mmHg 56%
17:00 +12°C° 0.1 mm 10 mps 761 mmHg 58%
18:00 +11°C° 0.1 mm 10 mps 762 mmHg 59%
19:00 +10°C° 0.1 mm 9 mps 762 mmHg 61%
20:00 +10°C° 0.1 mm 9 mps 762 mmHg 61%
21:00 +10°C° 0.1 mm 9 mps 762 mmHg 61%
22:00 +10°C° 0.1 mm 9 mps 762 mmHg 61%
23:00 +10°C° 0.1 mm 9 mps 762 mmHg 63%

16 Julio, Jueves

Tiempo Temperatura Precipitaciones Viento Presión Humedad
00:00 +10°C° 0.1 mm 9 mps 762 mmHg 64%
01:00 +10°C° 0.1 mm 9 mps 762 mmHg 66%
02:00 +8°C° 0.1 mm 9 mps 762 mmHg 67%
03:00 +8°C° 0.1 mm 9 mps 762 mmHg 67%
04:00 +8°C° 0.1 mm 9 mps 762 mmHg 67%
05:00 +8°C° 0.1 mm 9 mps 762 mmHg 67%
06:00 +8°C° 0.1 mm 9 mps 762 mmHg 66%
07:00 +8°C° 0.1 mm 9 mps 763 mmHg 66%
08:00 +10°C° 0.1 mm 9 mps 763 mmHg 65%
09:00 +10°C° 0.1 mm 8 mps 763 mmHg 64%
10:00 +11°C° 0.1 mm 8 mps 763 mmHg 63%
11:00 +12°C° 0.1 mm 9 mps 762 mmHg 61%
12:00 +13°C° 0.1 mm 9 mps 762 mmHg 60%
13:00 +13°C° 0.1 mm 9 mps 762 mmHg 59%
14:00 +13°C° 0.2 mm 9 mps 762 mmHg 62%
15:00 +13°C° 0.2 mm 9 mps 762 mmHg 66%
16:00 +12°C° 0.2 mm 9 mps 763 mmHg 70%
17:00 +12°C° 0.1 mm 9 mps 763 mmHg 71%
18:00 +12°C° 0.1 mm 9 mps 764 mmHg 71%
19:00 +12°C° 0.1 mm 8 mps 764 mmHg 72%
20:00 +11°C° 0.1 mm 8 mps 764 mmHg 74%
21:00 +11°C° 0.1 mm 8 mps 765 mmHg 75%
22:00 +11°C° 0.1 mm 8 mps 765 mmHg 76%
23:00 +11°C° 0.1 mm 8 mps 765 mmHg 77%

17 Julio, Viernes

Tiempo Temperatura Precipitaciones Viento Presión Humedad
00:00 +11°C° 0.1 mm 8 mps 765 mmHg 77%
01:00 +10°C° 0.1 mm 8 mps 765 mmHg 77%
02:00 +10°C° 0.1 mm 8 mps 765 mmHg 78%
03:00 +10°C° 0.1 mm 7 mps 765 mmHg 80%
04:00 +9°C° 0.1 mm 7 mps 765 mmHg 81%
05:00 +9°C° 0.1 mm 7 mps 765 mmHg 79%
06:00 +10°C° 0.1 mm 7 mps 765 mmHg 78%
07:00 +10°C° 0.1 mm 7 mps 766 mmHg 76%
08:00 +10°C° 0.1 mm 6 mps 766 mmHg 75%
09:00 +10°C° 0.1 mm 6 mps 766 mmHg 74%
10:00 +10°C° 0.1 mm 6 mps 766 mmHg 73%
11:00 +11°C° 0.1 mm 6 mps 766 mmHg 73%
12:00 +12°C° 0.1 mm 5 mps 765 mmHg 72%
13:00 +13°C° 0.1 mm 5 mps 765 mmHg 71%
14:00 +13°C° 0 mm 5 mps 765 mmHg 69%
15:00 +14°C° 0 mm 5 mps 765 mmHg 68%
16:00 +14°C° 0 mm 5 mps 765 mmHg 66%
17:00 +13°C° 0 mm 5 mps 765 mmHg 71%
18:00 +12°C° 0 mm 4 mps 766 mmHg 76%
19:00 +10°C° 0 mm 4 mps 766 mmHg 81%
20:00 +10°C° 0 mm 3 mps 766 mmHg 82%
21:00 +10°C° 0 mm 3 mps 766 mmHg 82%
22:00 +9°C° 0 mm 3 mps 766 mmHg 82%
23:00 +9°C° 0 mm 3 mps 766 mmHg 82%
Mostrar más